Weather History for Sussex, NJ

Change the Weather History Date:

Saturday, February 2, 2013

  Actual Average Record
Temperature  
Mean Temperature 20 °F -  
Max Temperature 25 °F 37 °F 64 °F (1989)
Min Temperature 15 °F 15 °F -12 °F (1971)
Degree Days  
Heating Degree Days 45    
Moisture  
Dew Point 12 °F    
Average Humidity 73    
Maximum Humidity 89    
Minimum Humidity 43    
Precipitation  
Precipitation 0.04 in - - ()
Sea Level Pressure  
Sea Level Pressure 30.11 in    
Wind  
Wind Speed 4 mph (SW)    
Max Wind Speed 12 mph    
Max Gust Speed 22 mph    
Visibility 5 miles    
Events Snow    
Averages and records for this station are not official NWS values.
T = Trace of Precipitation, MM = Missing Value Source: NWS Daily Summary

Daily Weather History Graph

Daily Weather History Graph

Search for Another Location

Airport:

Trip Planner

Search our weather history database for the weather conditions in past years. The results will help you decide how hot, cold, wet, or windy it might be!

Date:

Astronomy

Feb. 02, 2013 Rise Set
Actual Time 7:08 AM EST 5:16 PM EST
Civil Twilight 6:39 AM EST 5:45 PM EST
Nautical Twilight 6:06 AM EST 6:18 PM EST
Astronomical Twilight 5:33 AM EST 6:51 PM EST
Moon No Moon Rise 10:12 AM EST (2/2)
Length of Visible Light 11h 06m
Length of Day
10h 08m
Waning Gibbous, 60% of the Moon is Illuminated
Feb 2
Waning Gibbous
Feb 3
Last Quarter
Feb 10
New
Feb 17
First Quarter
Feb 25
Full

Hourly Weather History & Observations

Time (EST) Temp. Windchill Dew Point Humidity Pressure Visibility Wind Dir Wind Speed Gust Speed Precip Events Conditions
12:53 AM 19.9 °F - 10.0 °F 65% 30.21 in 10.0 mi Calm Calm - N/A   Mostly Cloudy
1:53 AM 19.9 °F 13.4 °F 6.1 °F 55% 30.23 in 10.0 mi Variable 4.6 mph - N/A   Scattered Clouds
2:53 AM 19.0 °F 12.3 °F 5.0 °F 54% 30.24 in 10.0 mi WSW 4.6 mph - N/A   Clear
3:53 AM 17.1 °F 10.0 °F 6.1 °F 62% 30.25 in 10.0 mi SW 4.6 mph - N/A   Clear
4:53 AM 16.0 °F 10.4 °F 6.1 °F 65% 30.25 in 10.0 mi SW 3.5 mph - N/A   Clear
5:53 AM 15.1 °F - 5.0 °F 64% 30.25 in 10.0 mi Calm Calm - N/A   Clear
7:53 AM 15.1 °F 9.4 °F 6.1 °F 68% 30.27 in 10.0 mi Variable 3.5 mph - N/A   Clear
8:53 AM 18.0 °F 11.1 °F 6.1 °F 60% 30.26 in 10.0 mi SSW 4.6 mph - N/A   Clear
9:53 AM 19.9 °F 10.1 °F 7.0 °F 57% 30.24 in 10.0 mi South 8.1 mph - N/A   Clear
10:53 AM 21.9 °F 15.7 °F 6.1 °F 51% 30.21 in 10.0 mi Variable 4.6 mph - N/A   Clear
11:53 AM 24.1 °F 16.0 °F 5.0 °F 44% 30.17 in 10.0 mi SSW 6.9 mph - N/A   Scattered Clouds
12:53 PM 25.0 °F 14.2 °F 5.0 °F 43% 30.14 in 10.0 mi SW 11.5 mph 21.9 mph N/A   Overcast
1:53 PM 24.1 °F 14.4 °F 6.1 °F 46% 30.12 in 10.0 mi SW 9.2 mph 19.6 mph N/A   Overcast
2:53 PM 23.0 °F 11.7 °F 9.0 °F 55% 30.11 in 10.0 mi SSW 11.5 mph 18.4 mph 0.00 in   Overcast
3:53 PM 21.9 °F 11.7 °F 10.0 °F 60% 30.10 in 10.0 mi SW 9.2 mph 18.4 mph 0.00 in   Overcast
4:53 PM 21.9 °F 13.4 °F 10.9 °F 63% 30.09 in 8.0 mi Variable 6.9 mph - N/A   Overcast
5:19 PM 21.2 °F 13.6 °F 14.0 °F 74% 30.07 in 2.0 mi SW 5.8 mph - 0.00 in Snow Light Snow
5:31 PM 21.2 °F 14.9 °F 14.0 °F 74% 30.06 in 1.8 mi Variable 4.6 mph - 0.00 in Snow Light Snow
5:40 PM 21.2 °F 12.6 °F 15.8 °F 80% 30.06 in 2.0 mi SSW 6.9 mph - 0.00 in Snow Light Snow
5:53 PM 19.9 °F 10.1 °F 14.0 °F 78% 30.09 in 2.5 mi SW 8.1 mph - 0.00 in Snow Light Snow
6:30 PM 19.4 °F 12.8 °F 15.8 °F 86% 30.06 in 1.8 mi SW 4.6 mph - 0.00 in Snow Light Snow
6:40 PM 19.4 °F 11.5 °F 15.8 °F 86% 30.06 in 2.5 mi SSW 5.8 mph - 0.00 in Snow Light Snow
6:53 PM 19.9 °F 14.9 °F 15.1 °F 81% 30.08 in 2.5 mi Variable 3.5 mph - 0.00 in Snow Light Snow
7:04 PM 19.4 °F 11.5 °F 15.8 °F 86% 30.06 in 1.8 mi SSW 5.8 mph - 0.00 in Snow Light Snow
7:22 PM 19.4 °F 14.3 °F 15.8 °F 86% 30.06 in 1.2 mi SSW 3.5 mph - 0.00 in Snow Light Snow
7:29 PM 19.4 °F 14.3 °F 15.8 °F 86% 30.06 in 1.5 mi SW 3.5 mph - 0.00 in Snow Light Snow
7:49 PM 19.4 °F 14.3 °F 15.8 °F 86% 30.06 in 2.5 mi SSW 3.5 mph - 0.00 in Snow Light Snow
7:53 PM 19.9 °F 14.9 °F 16.0 °F 85% 30.09 in 2.5 mi SSW 3.5 mph - 0.00 in Snow Light Snow
8:03 PM 19.4 °F 14.3 °F 15.8 °F 86% 30.06 in 1.2 mi SW 3.5 mph - 0.01 in Snow Light Snow
8:32 PM 19.4 °F 14.3 °F 15.8 °F 86% 30.06 in 1.5 mi SSW 3.5 mph - 0.01 in Snow Light Snow
8:53 PM 19.9 °F 14.9 °F 17.1 °F 89% 30.08 in 2.0 mi SSW 3.5 mph - 0.01 in Snow Light Snow
9:17 PM 21.2 °F 16.4 °F 17.6 °F 86% 30.05 in 1.8 mi SSW 3.5 mph - 0.01 in Snow Light Snow
9:29 PM 21.2 °F 16.4 °F 17.6 °F 86% 30.05 in 1.2 mi SSW 3.5 mph - 0.01 in Snow Light Snow
9:37 PM 21.2 °F - 15.8 °F 80% 30.05 in 1.5 mi Calm Calm - 0.01 in Snow Light Snow
9:53 PM 21.0 °F - 17.1 °F 85% 30.06 in 1.8 mi Calm Calm - 0.01 in Snow Light Snow
10:23 PM 21.2 °F - 17.6 °F 86% 30.04 in 1.0 mi Calm Calm - 0.00 in Snow Light Snow
10:53 PM 21.0 °F - 17.1 °F 85% 30.05 in 1.8 mi Calm Calm - 0.01 in Snow Light Snow
11:33 PM 21.2 °F - 17.6 °F 86% 30.02 in 1.2 mi Calm Calm - 0.01 in Snow Light Snow
11:41 PM 21.2 °F - 17.6 °F 86% 30.02 in 1.5 mi Calm Calm - 0.01 in Snow Light Snow
11:53 PM 21.0 °F - 18.0 °F 88% 30.03 in 1.5 mi Calm Calm - 0.01 in Snow Light Snow